Total_Precipitation_Accumulation
0.00 0.00 0.00 0.00 0.00 0.00 0.00 0.00 0.00 0.00 0.00 0.00 0.01 0.01 0.01 0.01 0.01 0.00 0.00 0.01 0.01 -0.01 -0.01 -0.01 -0.01 -0.01 -0.01 -0.01 0.01 0.01 0.01 0.01 0.02 0.02 0.02 0.03 0.04 0.06 0.06 0.10 0.14 0.20 0.20 0.19 0.19 0.19 0.16 0.10 0.09 0.09 0.14 0.12 0.11 0.07 0.07 0.06 0.05 0.03 0.03 0.04 0.06 0.05 0.05 0.05 0.04 0.04 0.06 0.16 0.19
0.00 0.00 0.00 0.00 -0.00 -0.00 0.00 0.00 -0.00 -0.00 0.00 0.00 0.00 0.00 0.00 0.00 0.01 0.01 0.01 0.01 0.01 0.00 0.00 -0.00 -0.00 -0.01 -0.01 -0.01 -0.02 -0.02 0.01 0.03 0.03 0.03 0.03 0.02 0.02 0.03 0.03 0.06 0.10 0.20 0.20 0.22 0.24 0.24 0.23 0.24 0.29 0.29 0.27 0.23 0.18 0.14 0.14 0.10 0.09 0.07 0.07 0.05 0.07 0.07 0.07 0.04 0.04 0.04 0.04 0.06 0.17
0.00 -0.00 -0.00 0.00 0.00 0.00 0.00 0.00 0.00 0.00 0.00 0.00 0.00 0.00 0.00 0.00 0.01 0.01 0.01 0.01 0.01 0.01 0.01 0.01 0.00 -0.00 -0.00 -0.01 -0.03 -0.03 -0.01 0.03 0.07 0.09 0.09 0.06 0.04 0.03 0.03 0.03 0.05 0.14 0.14 0.18 0.25 0.25 0.30 0.28 0.36 0.36 0.35 0.34 0.29 0.24 0.24 0.15 0.13 0.10 0.10 0.09 0.10 0.08 0.08 0.07 0.06 0.06 0.05 0.05 0.13
0.00 0.00 0.00 0.00 0.00 0.00 0.00 0.00 0.00 0.00 0.00 0.00 0.00 0.00 0.00 0.00 0.01 0.01 0.01 0.01 0.01 0.01 0.01 0.01 0.01 0.01 0.01 0.01 0.02 0.02 0.01 0.02 0.04 0.07 0.07 0.10 0.11 0.07 0.07 0.07 0.06 0.06 0.06 0.13 0.20 0.20 0.27 0.29 0.37 0.37 0.44 0.45 0.42 0.36 0.36 0.28 0.17 0.13 0.13 0.13 0.11 0.08 0.08 0.09 0.08 0.08 0.08 0.06 0.09
0.00 0.00 0.00 0.00 0.00 0.00 0.00 0.00 0.00 0.00 0.00 0.00 0.00 0.00 0.00 0.00 0.01 0.01 0.01 0.01 0.01 0.01 0.01 0.02 0.02 0.02 0.02 0.02 0.02 0.02 0.02 0.02 0.02 0.04 0.04 0.05 0.10 0.11 0.11 0.12 0.12 0.11 0.11 0.09 0.14 0.14 0.22 0.21 0.30 0.30 0.43 0.46 0.47 0.46 0.46 0.39 0.24 0.16 0.16 0.18 0.14 0.11 0.11 0.10 0.11 0.11 0.10 0.10 0.12
0.00 0.00 0.00 0.00 0.00 0.00 0.00 0.00 0.00 0.00 0.00 -0.00 -0.00 0.00 0.00 0.00 0.01 0.02 0.02 0.02 0.02 0.02 0.02 0.03 0.03 0.04 0.04 0.03 0.03 0.03 0.03 0.02 0.02 0.03 0.03 0.04 0.08 0.11 0.11 0.13 0.12 0.12 0.12 0.12 0.07 0.07 0.08 0.11 0.17 0.17 0.27 0.47 0.47 0.42 0.42 0.39 0.31 0.22 0.22 0.25 0.21 0.17 0.17 0.15 0.12 0.12 0.13 0.13 0.16
-0.00 0.00 0.00 0.00 0.00 0.00 0.00 0.00 0.00 0.00 0.00 0.00 0.00 0.00 0.00 0.00 0.01 0.02 0.02 0.03 0.03 0.03 0.03 0.04 0.05 0.06 0.06 0.06 0.06 0.06 0.05 0.04 0.03 0.02 0.02 0.03 0.05 0.11 0.11 0.12 0.11 0.12 0.12 0.12 0.10 0.10 0.11 0.10 0.14 0.14 0.20 0.40 0.42 0.39 0.39 0.33 0.28 0.28 0.28 0.23 0.25 0.25 0.25 0.25 0.22 0.22 0.18 0.16 0.20
-0.01 -0.01 -0.01 -0.00 0.00 0.00 0.00 0.00 0.00 0.00 0.00 0.00 0.00 0.00 0.00 0.00 0.01 0.02 0.02 0.02 0.03 0.05 0.05 0.06 0.08 0.07 0.07 0.08 0.07 0.07 0.06 0.05 0.04 0.03 0.03 0.03 0.02 0.06 0.06 0.10 0.11 0.11 0.11 0.11 0.12 0.12 0.11 0.11 0.11 0.11 0.15 0.21 0.36 0.37 0.37 0.31 0.28 0.29 0.29 0.25 0.23 0.24 0.24 0.28 0.30 0.30 0.28 0.23 0.27
-0.00 -0.01 -0.01 -0.03 -0.02 -0.02 -0.02 -0.01 -0.01 -0.01 -0.00 -0.00 0.00 0.00 0.00 0.01 -0.00 0.01 0.01 0.03 0.05 0.05 0.05 0.05 0.08 0.09 0.09 0.09 0.09 0.09 0.08 0.07 0.07 0.05 0.05 0.04 0.03 0.02 0.02 0.03 0.05 0.08 0.08 0.10 0.08 0.08 0.15 0.16 0.13 0.13 0.10 0.13 0.26 0.29 0.29 0.29 0.29 0.28 0.28 0.27 0.23 0.22 0.22 0.24 0.29 0.29 0.31 0.32 0.33
0.01 0.00 0.00 -0.02 -0.03 -0.03 -0.05 -0.04 -0.03 -0.03 -0.03 -0.03 -0.02 -0.01 -0.01 -0.00 -0.01 0.01 0.01 0.02 0.03 0.03 0.03 0.07 0.08 0.09 0.09 0.09 0.10 0.10 0.11 0.11 0.11 0.09 0.09 0.07 0.06 0.04 0.04 0.02 0.02 0.03 0.03 0.05 0.04 0.04 0.10 0.16 0.18 0.18 0.16 0.11 0.13 0.22 0.22 0.26 0.25 0.29 0.29 0.27 0.24 0.22 0.22 0.22 0.23 0.23 0.28 0.26 0.30
0.00 0.00 0.00 0.00 0.00 0.00 -0.01 -0.02 -0.04 -0.04 -0.07 -0.07 -0.08 -0.09 -0.09 -0.09 -0.06 -0.02 -0.02 -0.02 0.00 0.05 0.05 0.06 0.08 0.09 0.09 0.09 0.10 0.10 0.10 0.13 0.15 0.15 0.15 0.13 0.10 0.08 0.08 0.04 0.03 0.02 0.02 0.03 0.02 0.02 0.05 0.12 0.16 0.16 0.19 0.18 0.17 0.16 0.16 0.20 0.19 0.25 0.25 0.27 0.26 0.20 0.20 0.20 0.20 0.20 0.22 0.21 0.24
-0.00 0.00 0.00 0.00 0.01 0.01 0.01 0.00 -0.00 -0.00 -0.02 -0.04 -0.06 -0.08 -0.08 -0.11 -0.13 -0.14 -0.14 -0.12 -0.03 0.04 0.04 0.07 0.10 0.10 0.10 0.10 0.10 0.10 0.11 0.11 0.16 0.18 0.18 0.16 0.16 0.14 0.14 0.11 0.06 0.04 0.04 0.06 0.05 0.05 0.05 0.12 0.17 0.17 0.21 0.23 0.25 0.24 0.24 0.18 0.26 0.26 0.26 0.29 0.31 0.26 0.26 0.20 0.19 0.19 0.19 0.19 0.20
-0.02 -0.01 -0.01 0.00 0.00 0.00 0.01 0.01 0.01 0.01 0.00 0.00 -0.01 -0.02 -0.02 -0.03 -0.05 -0.15 -0.15 -0.15 -0.09 -0.01 -0.01 0.05 0.13 0.13 0.13 0.12 0.11 0.11 0.12 0.14 0.14 0.17 0.17 0.19 0.19 0.19 0.19 0.15 0.10 0.12 0.12 0.10 0.08 0.08 0.08 0.07 0.13 0.13 0.18 0.22 0.25 0.28 0.28 0.22 0.25 0.27 0.27 0.30 0.39 0.45 0.45 0.38 0.20 0.20 0.24 0.19 0.19
-0.04 -0.03 -0.03 -0.03 -0.02 -0.02 -0.01 -0.00 0.00 0.00 0.00 0.00 0.00 0.01 0.01 -0.00 -0.02 -0.08 -0.08 -0.09 -0.09 -0.08 -0.08 -0.02 0.07 0.16 0.16 0.14 0.12 0.12 0.12 0.14 0.13 0.16 0.16 0.17 0.19 0.21 0.21 0.22 0.16 0.20 0.20 0.16 0.14 0.14 0.13 0.13 0.11 0.11 0.12 0.15 0.17 0.18 0.18 0.14 0.19 0.22 0.22 0.23 0.27 0.40 0.40 0.53 0.53 0.53 0.50 0.34 0.24
-0.03 -0.04 -0.04 -0.04 -0.05 -0.05 -0.05 -0.04 -0.04 -0.04 -0.03 -0.03 -0.02 -0.01 -0.01 -0.02 -0.01 -0.03 -0.03 -0.06 -0.08 -0.09 -0.09 -0.08 0.03 0.15 0.15 0.17 0.15 0.15 0.13 0.11 0.12 0.15 0.15 0.15 0.16 0.20 0.20 0.23 0.26 0.29 0.29 0.25 0.22 0.22 0.21 0.19 0.17 0.17 0.10 0.10 0.12 0.12 0.12 0.14 0.17 0.22 0.22 0.21 0.21 0.24 0.24 0.37 0.56 0.56 0.51 0.60 0.46
-0.03 -0.03 -0.03 -0.04 -0.04 -0.04 -0.05 -0.07 -0.08 -0.08 -0.10 -0.10 -0.06 -0.04 -0.04 -0.04 -0.02 -0.02 -0.02 -0.04 -0.07 -0.09 -0.09 -0.09 -0.02 0.09 0.09 0.13 0.14 0.14 0.13 0.13 0.13 0.15 0.15 0.15 0.16 0.17 0.17 0.15 0.23 0.35 0.35 0.34 0.33 0.33 0.32 0.30 0.26 0.26 0.20 0.11 0.11 0.16 0.16 0.18 0.23 0.25 0.25 0.27 0.24 0.22 0.22 0.24 0.34 0.34 0.31 0.44 0.60
-0.10 -0.09 -0.09 -0.09 -0.09 -0.09 -0.09 -0.10 -0.10 -0.10 -0.12 -0.11 -0.08 -0.07 -0.07 -0.06 -0.03 -0.03 -0.03 -0.05 -0.03 -0.03 -0.03 -0.05 -0.02 0.03 0.03 0.07 0.10 0.10 0.11 0.13 0.14 0.15 0.15 0.16 0.14 0.13 0.13 0.15 0.19 0.23 0.23 0.39 0.37 0.37 0.36 0.38 0.37 0.37 0.30 0.17 0.14 0.21 0.21 0.22 0.27 0.29 0.29 0.29 0.25 0.22 0.22 0.20 0.17 0.17 0.20 0.26 0.36
-0.17 -0.22 -0.22 -0.26 -0.27 -0.27 -0.27 -0.27 -0.26 -0.26 -0.24 -0.23 -0.20 -0.19 -0.19 -0.17 -0.13 -0.09 -0.09 -0.06 0.01 0.03 0.03 0.03 0.01 -0.02 -0.02 -0.01 0.05 0.05 0.14 0.24 0.33 0.37 0.37 0.26 0.22 0.37 0.37 0.34 0.30 0.27 0.27 0.26 0.36 0.36 0.37 0.38 0.43 0.43 0.45 0.45 0.44 0.36 0.36 0.33 0.30 0.30 0.30 0.26 0.23 0.21 0.21 0.17 0.20 0.20 0.19 0.18 0.16
-0.16 -0.23 -0.23 -0.29 -0.32 -0.32 -0.35 -0.34 -0.32 -0.32 -0.28 -0.25 -0.24 -0.25 -0.25 -0.25 -0.23 -0.21 -0.21 -0.14 -0.06 -0.03 -0.03 -0.01 -0.00 -0.00 -0.00 -0.01 0.02 0.02 0.11 0.23 0.37 0.48 0.48 0.54 0.47 0.48 0.48 0.48 0.45 0.42 0.42 0.37 0.34 0.34 0.30 0.29 0.34 0.34 0.38 0.42 0.46 0.47 0.47 0.38 0.34 0.32 0.32 0.30 0.28 0.26 0.26 0.31 0.25 0.25 0.23 0.22 0.19
-0.17 -0.23 -0.23 -0.27 -0.33 -0.33 -0.37 -0.37 -0.36 -0.36 -0.35 -0.32 -0.31 -0.31 -0.31 -0.30 -0.29 -0.30 -0.30 -0.24 -0.18 -0.16 -0.16 -0.11 -0.06 -0.04 -0.04 -0.01 0.00 0.00 0.08 0.19 0.30 0.40 0.40 0.30 0.37 0.42 0.42 0.43 0.42 0.40 0.40 0.37 0.38 0.38 0.37 0.33 0.36 0.36 0.38 0.42 0.51 0.54 0.54 0.51 0.48 0.41 0.41 0.38 0.38 0.34 0.34 0.43 0.38 0.38 0.29 0.26 0.25
-0.21 -0.23 -0.23 -0.25 -0.30 -0.30 -0.34 -0.36 -0.37 -0.37 -0.39 -0.37 -0.36 -0.34 -0.34 -0.33 -0.32 -0.32 -0.32 -0.27 -0.26 -0.26 -0.26 -0.20 -0.14 -0.10 -0.10 -0.08 -0.02 -0.02 0.14 0.25 0.33 0.35 0.35 0.27 0.30 0.39 0.39 0.41 0.39 0.35 0.35 0.31 0.33 0.33 0.38 0.40 0.42 0.42 0.45 0.51 0.54 0.57 0.57 0.58 0.50 0.48 0.48 0.48 0.50 0.49 0.49 0.57 0.50 0.50 0.42 0.32 0.30
-0.26 -0.28 -0.28 -0.30 -0.32 -0.32 -0.33 -0.35 -0.36 -0.36 -0.38 -0.36 -0.34 -0.35 -0.35 -0.35 -0.33 -0.29 -0.29 -0.29 -0.30 -0.30 -0.30 -0.24 -0.19 -0.16 -0.16 -0.14 -0.06 -0.06 0.14 0.25 0.27 0.18 0.18 0.23 0.28 0.38 0.38 0.43 0.46 0.46 0.46 0.45 0.48 0.48 0.47 0.45 0.46 0.46 0.49 0.52 0.55 0.58 0.58 0.58 0.56 0.46 0.46 0.47 0.50 0.54 0.54 0.55 0.54 0.54 0.49 0.42 0.31
-0.33 -0.36 -0.36 -0.37 -0.38 -0.38 -0.38 -0.37 -0.36 -0.36 -0.37 -0.35 -0.35 -0.36 -0.36 -0.35 -0.30 -0.32 -0.32 -0.34 -0.33 -0.31 -0.31 -0.24 -0.19 -0.18 -0.18 -0.17 -0.10 -0.10 -0.01 0.08 0.08 0.11 0.11 0.13 0.16 0.21 0.21 0.42 0.51 0.60 0.60 0.67 0.71 0.71 0.69 0.59 0.50 0.50 0.53 0.52 0.55 0.57 0.57 0.57 0.57 0.56 0.56 0.47 0.46 0.46 0.46 0.48 0.49 0.49 0.47 0.44 0.38
-0.46 -0.46 -0.46 -0.45 -0.46 -0.46 -0.44 -0.42 -0.37 -0.37 -0.37 -0.35 -0.34 -0.34 -0.34 -0.34 -0.32 -0.33 -0.33 -0.35 -0.33 -0.30 -0.30 -0.23 -0.19 -0.16 -0.16 -0.16 -0.05 -0.05 0.00 0.11 0.10 0.08 0.08 0.10 0.15 0.22 0.22 0.41 0.50 0.59 0.59 0.70 0.79 0.79 0.86 0.67 0.62 0.62 0.51 0.49 0.48 0.48 0.48 0.48 0.49 0.50 0.50 0.49 0.47 0.40 0.40 0.42 0.41 0.41 0.40 0.40 0.37
-0.53 -0.51 -0.51 -0.51 -0.50 -0.50 -0.48 -0.45 -0.41 -0.41 -0.39 -0.35 -0.33 -0.34 -0.34 -0.34 -0.31 -0.31 -0.31 -0.30 -0.28 -0.27 -0.27 -0.24 -0.18 -0.12 -0.12 -0.06 0.03 0.03 0.14 0.13 0.13 0.10 0.10 0.12 0.17 0.28 0.28 0.34 0.41 0.46 0.46 0.56 0.68 0.68 0.86 0.60 0.57 0.57 0.40 0.37 0.35 0.33 0.33 0.33 0.34 0.35 0.35 0.36 0.37 0.30 0.30 0.32 0.34 0.34 0.34 0.34 0.33
-0.55 -0.55 -0.55 -0.53 -0.52 -0.52 -0.50 -0.48 -0.42 -0.42 -0.39 -0.35 -0.33 -0.34 -0.34 -0.31 -0.27 -0.27 -0.27 -0.24 -0.22 -0.22 -0.22 -0.22 -0.15 -0.07 -0.07 0.01 0.08 0.08 0.12 0.12 0.10 0.10 0.10 0.17 0.24 0.29 0.29 0.33 0.33 0.37 0.37 0.46 0.60 0.60 0.70 0.44 0.29 0.29 0.27 0.26 0.24 0.22 0.22 0.21 0.21 0.22 0.22 0.23 0.16 0.18 0.18 0.23 0.25 0.25 0.27 0.28 0.29
-0.53 -0.51 -0.51 -0.48 -0.48 -0.48 -0.48 -0.45 -0.38 -0.38 -0.35 -0.33 -0.32 -0.31 -0.31 -0.27 -0.24 -0.24 -0.24 -0.21 -0.21 -0.20 -0.20 -0.18 -0.12 -0.05 -0.05 0.02 0.04 0.04 0.07 0.07 0.05 0.07 0.07 0.17 0.24 0.26 0.26 0.26 0.26 0.44 0.44 0.48 0.71 0.71 0.51 0.32 0.22 0.22 0.20 0.19 0.17 0.16 0.16 0.14 0.13 0.13 0.13 0.15 0.11 0.13 0.13 0.14 0.18 0.18 0.20 0.22 0.24
-0.44 -0.43 -0.43 -0.41 -0.42 -0.42 -0.42 -0.39 -0.34 -0.34 -0.31 -0.31 -0.31 -0.28 -0.28 -0.24 -0.24 -0.23 -0.23 -0.21 -0.20 -0.20 -0.20 -0.15 -0.06 0.02 0.02 0.02 0.04 0.04 0.06 0.08 0.03 0.07 0.07 0.15 0.18 0.16 0.16 0.16 0.18 0.27 0.27 0.62 0.85 0.85 0.41 0.22 0.18 0.18 0.15 0.14 0.13 0.13 0.13 0.11 0.10 0.10 0.10 0.10 0.09 0.09 0.09 0.10 0.11 0.11 0.15 0.19 0.20
-0.39 -0.38 -0.38 -0.38 -0.40 -0.40 -0.39 -0.37 -0.29 -0.29 -0.27 -0.29 -0.30 -0.28 -0.28 -0.27 -0.27 -0.23 -0.23 -0.19 -0.19 -0.21 -0.21 -0.16 -0.05 -0.02 -0.02 0.01 0.03 0.03 0.02 0.05 0.06 0.08 0.08 0.12 0.11 0.10 0.10 0.09 0.13 0.20 0.20 0.73 0.86 0.86 0.38 0.20 0.16 0.16 0.13 0.10 0.10 0.10 0.10 0.09 0.08 0.08 0.08 0.08 0.08 0.09 0.09 0.09 0.09 0.09 0.10 0.12 0.17
-0.45 -0.41 -0.41 -0.41 -0.39 -0.39 -0.38 -0.35 -0.25 -0.25 -0.24 -0.27 -0.31 -0.32 -0.32 -0.30 -0.26 -0.21 -0.21 -0.18 -0.20 -0.14 -0.14 -0.10 -0.07 -0.01 -0.01 0.04 0.02 0.02 -0.02 -0.04 0.03 0.03 0.03 0.02 0.01 0.02 0.02 0.05 0.10 0.14 0.14 0.22 0.80 0.80 0.24 0.16 0.13 0.13 0.11 0.09 0.08 0.08 0.08 0.08 0.07 0.07 0.07 0.07 0.08 0.09 0.09 0.10 0.10 0.10 0.11 0.11 0.12
-0.45 -0.43 -0.43 -0.38 -0.37 -0.37 -0.36 -0.32 -0.24 -0.24 -0.24 -0.26 -0.32 -0.32 -0.32 -0.29 -0.23 -0.17 -0.17 -0.13 -0.16 -0.15 -0.15 -0.06 -0.02 0.03 0.03 0.07 0.06 0.06 -0.01 -0.02 -0.02 -0.01 -0.01 -0.01 -0.01 -0.01 -0.01 0.02 0.05 0.07 0.07 0.14 0.75 0.75 0.17 0.11 0.09 0.09 0.07 0.06 0.06 0.06 0.06 0.06 0.07 0.07 0.07 0.07 0.08 0.09 0.09 0.10 0.11 0.11 0.11 0.11 0.11
-0.42 -0.41 -0.41 -0.38 -0.35 -0.35 -0.32 -0.29 -0.25 -0.25 -0.25 -0.26 -0.27 -0.25 -0.25 -0.18 -0.17 -0.07 -0.07 -0.07 -0.07 -0.11 -0.11 -0.10 -0.02 0.04 0.04 0.05 0.05 0.05 0.03 0.01 0.01 -0.03 -0.03 -0.02 -0.01 -0.02 -0.02 -0.01 0.01 0.01 0.01 0.08 0.65 0.65 0.44 0.06 0.06 0.06 0.04 0.04 0.04 0.04 0.04 0.04 0.04 0.05 0.05 0.03 0.07 0.08 0.08 0.10 0.11 0.11 0.11 0.11 0.11
-0.39 -0.39 -0.39 -0.37 -0.35 -0.35 -0.32 -0.30 -0.27 -0.27 -0.27 -0.22 -0.17 -0.14 -0.14 -0.14 -0.17 -0.03 -0.03 -0.02 -0.02 0.01 0.01 -0.03 -0.02 0.03 0.03 0.03 0.03 0.03 0.05 0.05 0.02 0.01 0.01 0.00 0.00 0.01 0.01 0.03 0.03 -0.01 -0.01 0.03 0.56 0.56 0.33 0.04 0.04 0.04 0.03 0.02 0.02 0.02 0.02 0.02 0.02 0.01 0.01 0.01 0.02 0.06 0.06 0.08 0.10 0.10 0.11 0.11 0.10
-0.37 -0.37 -0.37 -0.35 -0.34 -0.34 -0.31 -0.28 -0.25 -0.25 -0.24 -0.20 -0.14 -0.10 -0.10 -0.09 -0.14 -0.02 -0.02 0.03 0.03 0.07 0.07 0.06 0.03 0.05 0.05 0.05 0.04 0.04 0.03 0.04 0.05 0.04 0.04 0.02 0.02 0.02 0.02 0.05 0.07 0.07 0.07 0.21 0.63 0.63 0.21 0.09 0.02 0.02 0.01 0.01 0.01 0.01 0.01 0.01 0.01 0.01 0.01 0.01 0.01 0.02 0.02 0.05 0.07 0.07 0.09 0.10 0.07
-0.36 -0.35 -0.35 -0.32 -0.30 -0.30 -0.27 -0.23 -0.20 -0.20 -0.20 -0.18 -0.12 -0.08 -0.08 -0.05 -0.09 -0.03 -0.03 0.03 0.04 0.07 0.07 0.09 0.05 0.05 0.05 0.04 0.03 0.03 0.02 0.02 0.02 0.03 0.03 0.03 0.02 0.02 0.02 0.04 0.07 0.08 0.08 0.19 0.63 0.63 0.21 0.07 0.02 0.02 0.01 0.01 0.01 0.01 0.01 0.01 0.01 0.01 0.01 0.00 0.00 0.01 0.01 0.02 0.03 0.03 0.06 0.07 0.05
-0.30 -0.30 -0.30 -0.27 -0.25 -0.25 -0.22 -0.19 -0.16 -0.16 -0.16 -0.16 -0.14 -0.09 -0.09 -0.06 -0.11 -0.06 -0.06 0.02 0.00 0.07 0.07 0.09 0.04 0.03 0.03 0.03 0.03 0.03 0.04 0.04 0.02 0.01 0.01 0.01 0.02 0.02 0.02 0.03 0.06 0.04 0.04 0.16 0.64 0.64 0.25 0.08 0.02 0.02 0.01 0.01 0.01 0.01 0.01 0.01 0.01 0.03 0.03 0.01 0.00 0.00 0.00 0.01 0.01 0.01 0.03 0.04 0.05
-0.25 -0.24 -0.24 -0.23 -0.21 -0.21 -0.18 -0.14 -0.14 -0.14 -0.13 -0.15 -0.16 -0.15 -0.15 -0.10 -0.12 -0.08 -0.08 -0.02 -0.01 0.01 0.01 0.08 0.05 0.04 0.04 0.04 0.03 0.03 0.03 0.04 0.02 0.01 0.01 0.01 0.01 0.01 0.01 0.01 0.04 0.03 0.03 0.14 0.68 0.68 0.24 0.16 0.05 0.05 0.01 0.01 0.00 0.01 0.01 0.01 0.00 0.01 0.01 0.02 0.01 0.01 0.01 0.00 0.00 0.00 0.01 0.03 0.04
-0.24 -0.24 -0.24 -0.20 -0.17 -0.17 -0.16 -0.14 -0.12 -0.12 -0.11 -0.13 -0.15 -0.15 -0.15 -0.14 -0.14 -0.08 -0.08 -0.05 -0.01 0.01 0.01 0.08 0.07 0.06 0.06 0.05 0.03 0.03 0.02 0.02 0.01 0.01 0.01 0.00 0.00 0.01 0.01 0.00 0.01 0.02 0.02 0.10 0.66 0.66 0.25 0.18 0.12 0.12 0.03 0.01 0.01 0.00 0.00 0.00 0.00 0.00 0.00 0.01 0.03 0.03 0.03 0.02 0.01 0.01 0.01 0.02 0.04
-0.22 -0.22 -0.22 -0.20 -0.17 -0.17 -0.14 -0.12 -0.10 -0.10 -0.08 -0.09 -0.10 -0.09 -0.09 -0.09 -0.20 -0.12 -0.12 -0.06 -0.02 0.01 0.01 0.07 0.09 0.07 0.07 0.05 0.02 0.02 0.02 0.01 0.01 0.01 0.01 0.00 0.00 0.00 0.00 0.00 0.00 0.01 0.01 0.05 0.57 0.57 0.24 0.19 0.16 0.16 0.07 0.03 0.01 0.00 0.00 0.00 0.00 0.00 0.00 0.00 0.02 0.03 0.03 0.02 0.02 0.02 0.01 0.02 0.01
-0.13 -0.14 -0.14 -0.14 -0.14 -0.14 -0.11 -0.07 -0.05 -0.05 -0.05 -0.05 -0.07 -0.08 -0.08 -0.09 -0.18 -0.12 -0.12 -0.08 -0.04 -0.01 -0.01 0.02 0.07 0.06 0.06 0.04 0.02 0.02 0.02 0.01 0.01 0.01 0.01 0.01 0.00 0.00 0.00 0.00 0.00 0.01 0.01 0.02 0.44 0.44 0.24 0.20 0.17 0.17 0.11 0.04 0.01 0.00 0.00 0.00 0.00 0.00 0.00 0.00 0.00 0.02 0.02 0.02 0.01 0.01 0.00 0.01 0.01
-0.11 -0.11 -0.11 -0.11 -0.10 -0.10 -0.07 -0.03 -0.02 -0.02 -0.02 -0.03 -0.04 -0.07 -0.07 -0.08 -0.14 -0.09 -0.09 -0.07 -0.05 -0.03 -0.03 -0.01 0.04 0.03 0.03 0.03 0.02 0.02 0.02 0.01 0.00 0.01 0.01 0.00 0.00 0.00 0.00 0.00 0.00 0.00 0.00 0.01 0.28 0.28 0.36 0.19 0.14 0.14 0.14 0.06 0.02 0.01 0.01 0.00 0.00 0.00 0.00 0.00 0.00 0.01 0.01 0.01 0.00 0.00 0.00 0.00 0.00